GFSFLT2_850_spd_057.txt.gz
Wind_Speed
6 19 21 22 24 25 25 24 17 19 26 24 26 26 26 32 24 36 37 34 35 37 39 41 42 45 47 44 45 45 41 42
5 9 18 21 18 21 18 24 27 20 22 19 27 24 26 20 18 22 27 34 33 35 37 39 41 42 43 44 45 44 43 44
17 12 19 16 20 18 18 23 21 19 17 15 21 25 24 24 28 24 27 25 28 33 36 38 37 38 41 43 43 42 43 44
21 13 18 24 22 26 18 22 21 21 16 14 13 21 24 24 29 36 31 27 30 30 33 36 38 38 40 41 41 43 43 45
17 15 16 16 21 16 20 26 24 20 20 22 3 9 11 23 32 30 35 32 29 30 30 34 37 38 39 40 41 39 40 43
14 8 11 14 24 23 20 16 21 24 21 26 9 4 11 17 24 30 30 31 33 30 29 31 35 40 40 40 39 38 37 40
17 18 13 16 15 13 18 14 18 21 25 23 15 13 8 7 11 17 16 19 31 28 30 31 32 37 41 38 40 40 42 42
18 16 15 18 19 18 21 20 20 24 26 21 23 17 16 9 11 5 8 8 11 19 22 25 29 33 37 43 41 42 43 48
19 17 18 20 21 20 22 23 22 22 23 20 19 10 19 15 11 4 11 10 9 10 15 22 28 28 33 41 42 40 44 42
14 18 19 16 13 16 23 24 24 25 26 26 28 18 27 5 6 9 10 13 13 13 14 17 21 25 29 31 41 43 44 42
13 14 18 19 1 9 8 13 17 22 24 33 33 33 19 24 5 9 11 14 15 15 16 18 19 23 23 31 35 43 43 47
11 16 20 16 11 8 5 13 11 18 23 23 21 14 10 11 9 11 12 14 17 19 20 21 24 24 27 31 36 42 47 50
16 14 12 12 8 9 5 3 30 23 17 14 11 13 13 14 15 13 13 14 18 19 23 23 23 25 31 34 39 46 41 40
15 9 16 8 7 5 6 22 27 26 14 15 15 14 15 13 16 17 16 15 10 15 17 19 22 27 33 37 41 37 36 39
5 5 3 4 10 14 13 21 37 22 12 12 12 11 12 13 14 15 16 15 12 9 6 6 10 17 27 33 32 34 36 38
8 2 11 16 13 10 16 30 35 14 9 9 10 9 12 10 16 20 20 22 20 14 12 12 2 8 14 22 26 29 33 34
5 7 17 4 7 12 19 26 12 8 7 8 9 9 9 9 15 16 21 24 25 22 22 19 13 9 10 15 24 27 30 32
3 11 11 12 16 13 19 9 7 3 3 5 5 7 6 7 13 15 19 24 24 27 21 19 16 17 10 14 17 25 28 31
6 13 10 10 7 13 15 8 5 1 9 2 2 2 4 8 12 9 18 17 22 23 23 18 17 16 15 18 14 15 23 27

GFSFLT2_850_spd_060.txt.gz
Wind_Speed
11 18 18 20 19 22 23 22 16 17 18 23 21 22 18 20 20 26 16 9 39 43 46 46 47 48 48 48 45 42 44 43
16 9 14 20 19 18 15 22 24 18 21 13 20 18 17 19 21 21 24 37 41 41 44 45 48 46 46 45 47 45 41 45
17 13 13 13 15 20 19 17 18 16 16 18 14 22 18 20 30 31 23 29 35 24 40 44 44 45 46 46 43 46 44 43
17 19 19 17 21 20 14 18 16 15 17 21 10 9 21 23 25 36 41 42 33 36 38 43 44 45 46 46 46 46 46 43
15 15 20 13 19 20 21 19 22 16 15 25 17 13 9 19 22 26 44 50 44 44 47 49 46 45 45 47 47 43 43 43
14 11 13 12 15 19 21 16 17 20 24 21 16 8 13 10 6 18 34 46 40 44 37 49 50 47 45 44 44 44 42 44
21 24 20 18 17 18 20 23 20 19 22 22 9 21 20 28 29 15 19 15 26 25 23 43 46 47 46 42 43 43 44 45
20 22 21 21 19 18 20 20 22 18 21 20 21 8 27 29 32 42 11 3 8 7 27 30 26 44 45 45 43 44 44 46
18 17 21 21 20 19 20 20 18 18 19 18 15 16 11 20 23 30 35 9 10 11 11 14 27 16 42 44 43 42 45 43
11 14 15 15 21 21 24 24 20 20 21 22 23 26 25 24 18 25 35 22 14 14 17 9 5 38 33 38 41 41 43 42
8 13 16 23 11 8 10 12 9 18 17 31 25 31 29 16 16 15 17 34 22 15 16 19 18 13 6 33 39 44 41 45
10 14 16 18 8 10 11 10 17 18 19 27 33 14 4 18 13 18 19 24 29 23 18 17 20 24 21 15 32 42 38 45
13 11 14 5 5 9 10 5 19 18 19 23 16 17 17 13 14 14 16 21 26 22 23 19 20 23 26 30 25 35 40 37
10 11 14 4 8 12 10 16 20 20 19 24 25 24 21 17 16 16 19 22 20 20 16 17 18 22 27 31 37 29 32 40
4 4 14 8 6 11 14 16 21 22 21 23 28 21 19 16 15 14 16 17 17 11 9 9 14 11 16 32 30 36 27 37
10 3 15 16 12 12 13 15 20 22 24 24 27 21 19 15 13 13 17 18 18 12 6 10 13 9 9 16 29 32 39 36
5 7 18 3 18 19 19 20 18 21 23 23 17 16 14 13 11 8 13 16 17 16 9 8 9 7 7 13 18 29 34 37
3 15 12 18 19 18 20 19 24 19 14 13 13 10 10 10 10 6 9 15 20 19 15 11 14 8 3 8 12 17 23 30
4 13 10 13 16 16 16 16 14 13 12 7 7 7 8 10 7 3 6 10 15 18 16 13 13 14 5 3 13 18 18 24

GFSFLT2_850_spd_063.txt.gz
Wind_Speed
13 7 11 8 5 9 7 9 4 6 8 13 11 19 30 33 29 28 27 29 21 48 51 51 48 50 51 49 46 42 43 42
15 17 6 9 4 3 3 7 7 6 8 6 6 13 25 22 26 21 21 28 13 11 38 49 53 49 50 50 47 43 43 44
11 4 8 7 4 4 1 2 6 6 7 9 9 6 15 24 35 44 41 44 22 31 27 38 42 45 50 52 49 47 43 43
13 19 18 13 9 4 4 8 3 4 8 13 10 14 30 25 39 49 53 47 55 56 49 40 36 44 51 53 53 51 47 44
10 7 5 7 13 13 3 2 8 4 7 3 13 17 22 31 14 36 50 46 51 48 45 43 35 38 48 53 56 53 50 47
5 11 10 14 21 18 9 2 5 5 7 15 13 13 21 23 33 4 19 38 50 44 31 33 50 38 47 49 52 51 51 50
10 14 15 20 20 20 14 8 3 9 15 6 8 8 16 20 23 28 21 16 30 45 42 28 49 44 39 50 51 50 48 50
10 12 15 18 19 21 17 13 12 11 15 10 22 26 21 28 21 25 28 37 25 28 41 34 41 46 33 47 51 52 49 50
5 9 12 11 12 16 17 12 9 10 10 15 17 19 24 29 26 25 22 16 25 34 11 29 22 19 36 33 43 51 53 52
4 4 4 8 10 15 16 13 16 11 16 15 17 20 34 34 29 31 30 26 24 29 20 16 10 26 35 41 32 33 44 51
4 4 10 13 11 4 7 5 15 14 13 22 29 15 17 35 29 27 29 26 26 26 25 29 20 19 25 25 35 33 30 51
2 4 5 3 5 11 9 4 14 17 17 20 23 6 6 34 31 32 24 28 28 28 25 27 19 12 12 27 41 39 37 47
5 6 5 7 4 10 3 4 17 17 17 17 5 8 22 24 27 26 26 27 28 25 26 23 13 9 11 23 30 29 26 44
1 6 6 28 8 4 9 18 20 20 18 18 16 17 18 22 24 26 22 26 25 25 25 24 21 21 14 12 25 22 23 27
4 3 7 14 15 15 18 21 23 25 26 22 22 19 19 18 21 23 21 21 23 25 22 21 22 25 27 23 23 23 22 26
6 1 10 23 9 15 19 23 23 24 26 27 26 24 19 18 16 18 21 17 16 18 17 20 20 21 24 27 26 26 26 27
5 8 22 7 20 20 24 22 23 23 23 22 21 25 20 17 15 13 19 16 14 14 15 15 18 17 17 23 24 23 26 29
3 12 10 15 20 21 19 23 21 22 23 19 19 23 18 18 17 14 11 10 15 15 18 15 19 18 17 15 20 18 19 25
5 8 6 10 17 21 24 23 20 20 20 20 16 19 20 18 17 11 9 6 9 15 16 16 18 18 15 12 15 14 16 17

GFSFLT2_850_spd_069.txt.gz
Wind_Speed
4 6 2 2 4 1 7 4 3 3 5 5 11 13 6 20 22 32 36 39 39 41 49 54 54 55 50 47 44 39 36 29
5 5 9 7 2 3 4 4 3 3 2 3 10 12 11 3 16 22 28 32 32 39 49 53 54 54 52 48 47 42 39 35
2 6 4 7 5 5 3 4 5 3 1 5 7 8 8 14 13 24 34 37 37 39 47 53 53 55 55 53 51 48 45 39
4 6 6 10 5 4 4 5 2 2 2 8 10 10 17 21 24 15 36 36 41 34 41 37 41 48 55 55 53 50 47 43
4 6 8 7 6 4 4 3 3 1 2 10 18 18 26 30 34 22 6 9 13 13 24 26 25 32 42 47 52 51 47 47
4 3 3 3 5 5 5 4 4 3 4 11 16 17 24 29 31 29 19 10 11 10 8 9 17 21 27 37 45 48 49 48
2 2 2 2 4 5 3 4 4 6 5 7 12 12 19 23 28 29 30 22 16 9 6 2 7 9 16 27 29 37 45 49
6 4 5 2 4 5 6 3 2 5 2 6 13 17 21 24 24 25 28 25 21 15 10 7 2 10 15 12 25 30 36 43
3 6 6 5 6 5 2 3 3 5 1 5 6 14 17 21 24 24 25 24 23 18 16 14 10 2 13 19 14 24 29 32
2 4 1 5 3 5 8 5 4 3 5 6 8 6 13 18 20 24 25 24 23 19 15 15 18 13 4 11 21 22 21 33
4 3 5 4 4 4 2 4 3 2 3 8 16 9 10 18 19 18 20 22 22 23 18 18 16 20 14 3 10 15 18 19
3 3 5 5 3 11 5 3 3 4 5 10 15 1 4 18 24 21 17 18 23 21 21 16 15 14 17 12 6 7 12 14
3 4 6 2 9 5 3 2 2 5 6 9 1 9 21 25 25 20 18 17 20 20 20 20 16 13 13 15 12 11 10 9
2 2 7 3 2 3 2 8 8 9 13 15 16 17 23 25 25 22 21 18 16 22 21 20 17 17 12 15 15 16 15 10
6 4 2 1 4 11 13 14 14 15 18 21 22 18 20 25 28 23 21 21 19 21 22 17 18 15 20 16 19 18 21 17
4 4 4 9 16 11 11 16 20 22 22 21 24 22 26 25 25 27 23 21 20 22 22 23 18 17 15 21 26 24 25 28
5 11 14 8 7 8 7 12 20 22 22 24 25 26 25 27 30 31 26 22 22 24 22 22 21 17 18 20 26 31 32 32
5 8 6 10 9 9 12 16 21 24 22 21 23 26 25 29 30 30 27 22 24 26 23 21 20 21 19 22 25 29 37 35
5 5 11 13 15 14 14 16 21 23 19 21 22 22 25 29 28 28 29 28 25 24 26 23 21 20 22 24 24 28 31 30

GFSFLT2_850_spd_072.txt.gz
Wind_Speed
4 5 2 4 5 3 7 2 3 2 4 6 18 19 29 28 4 17 24 30 34 38 36 41 42 43 44 47 45 41 37 31
5 5 9 7 1 3 4 3 2 2 3 4 16 19 19 23 25 18 17 25 34 34 36 37 41 42 40 47 47 43 40 34
5 8 5 6 5 5 5 3 5 4 2 7 7 11 17 22 26 28 13 22 30 35 32 33 36 40 42 46 49 47 44 40
2 5 4 5 3 3 4 3 2 3 2 6 10 17 21 24 27 31 17 7 18 26 28 25 32 38 41 45 48 48 46 43
3 5 5 7 5 3 4 3 1 4 4 9 16 18 24 24 27 32 28 21 10 6 18 20 25 31 34 36 42 45 47 46
6 4 3 4 4 4 4 3 3 1 3 6 12 15 23 26 25 28 27 23 22 16 11 7 15 17 24 28 32 38 41 43
5 5 3 3 3 1 1 3 3 5 2 3 6 9 15 19 24 27 31 29 23 19 15 8 6 9 16 18 21 27 36 38
2 3 2 4 6 6 4 3 3 6 3 4 5 10 17 21 24 25 25 27 26 22 18 14 6 3 8 14 22 25 28 30
3 2 2 3 1 3 2 3 2 1 0 6 5 9 11 15 18 21 22 23 24 24 21 18 15 7 7 13 16 22 26 27
3 1 3 3 2 5 4 1 1 4 2 4 6 11 1 13 17 19 21 21 21 21 21 18 15 14 11 6 13 18 22 29
3 1 3 1 2 2 4 6 2 2 3 8 15 9 14 8 17 19 19 18 18 19 18 19 17 14 14 11 7 11 19 22
2 3 4 5 3 3 1 4 5 5 5 7 14 3 2 7 20 21 18 18 20 19 18 17 17 15 11 10 8 5 6 11
3 2 5 2 5 2 4 2 1 3 5 6 2 9 26 31 29 25 24 21 19 21 21 20 18 17 14 10 8 9 5 4
3 3 6 1 2 3 0 4 8 10 11 15 18 23 28 32 32 33 29 26 23 22 24 22 18 19 17 15 14 8 8 5
6 4 3 2 4 7 13 11 8 12 15 18 23 25 27 34 37 34 35 30 26 28 25 25 22 20 23 19 17 18 12 11
3 2 7 6 3 3 3 7 7 11 19 19 22 22 25 29 35 38 36 35 31 31 32 29 27 25 24 24 23 20 20 18
4 9 10 14 8 3 2 5 9 15 23 21 20 23 25 29 32 37 37 35 34 33 35 35 29 28 25 27 27 25 23 21
5 10 5 4 4 3 7 9 10 16 24 21 20 21 24 27 30 32 35 36 36 36 34 37 32 28 27 27 27 27 27 26
6 9 6 3 4 6 7 6 11 15 19 21 20 19 20 24 23 24 25 27 28 34 31 33 34 30 28 28 26 27 28 28

GFSFLT2_850_spd_075.txt.gz
Wind_Speed
7 6 2 6 8 2 5 2 8 4 3 6 16 19 27 27 23 14 9 26 29 28 31 36 39 38 35 33 31 36 35 32
5 2 11 2 4 6 3 9 9 4 3 4 17 19 18 23 24 22 8 13 23 27 27 32 33 33 35 35 34 33 36 36
1 7 7 1 3 3 2 2 6 7 4 6 8 11 14 22 24 24 19 2 12 18 21 24 30 29 32 36 36 36 39 39
4 1 4 7 3 1 7 5 2 1 5 5 8 12 15 19 22 24 24 21 12 2 10 17 22 24 28 29 32 33 35 40
3 3 1 4 5 3 2 0 2 5 5 5 9 14 16 19 22 24 25 25 22 16 8 5 8 16 19 25 26 25 30 35
2 4 2 3 4 5 3 3 7 3 11 6 9 11 16 18 20 22 25 26 25 22 15 8 5 11 14 17 18 21 23 26
9 6 3 1 1 3 4 4 2 9 8 5 5 8 11 14 17 20 23 24 24 23 21 14 4 5 8 13 18 19 21 24
3 4 3 4 5 4 1 4 3 3 6 3 4 4 10 13 15 18 20 21 21 20 20 20 17 9 4 11 16 22 24 25
4 3 0 5 6 6 2 3 4 5 5 6 4 5 7 10 14 16 18 19 21 21 20 19 18 16 12 7 12 15 23 25
5 3 4 5 4 1 2 4 4 5 6 6 3 2 3 5 11 16 17 20 20 20 20 19 18 16 14 10 6 9 13 19
4 6 1 6 2 1 3 4 3 5 2 3 6 2 7 1 12 17 18 18 19 19 19 19 20 19 16 12 10 5 6 14
2 3 6 5 6 2 3 5 4 4 4 7 11 4 5 4 16 19 18 19 22 22 21 20 20 20 18 16 13 11 8 6
4 3 2 3 5 4 5 4 5 3 3 3 4 6 17 20 19 18 20 23 22 23 23 22 22 21 21 18 17 15 12 10
2 4 6 7 5 5 5 4 1 2 3 7 10 14 19 22 22 22 22 23 23 25 25 25 24 23 22 21 20 19 16 14
6 3 3 6 3 3 3 4 5 3 4 7 12 15 17 21 23 23 24 23 23 23 27 29 27 25 25 22 23 24 21 17
2 7 12 10 5 4 5 5 4 2 3 9 13 14 16 17 20 24 25 26 25 24 26 29 30 29 27 24 23 26 27 24
5 6 3 10 10 4 4 4 3 3 4 9 10 12 14 15 17 19 24 25 24 25 25 27 30 32 30 26 24 30 30 28
5 10 6 5 10 13 9 7 7 5 5 8 10 10 12 12 15 21 24 27 23 22 22 22 27 26 26 22 26 29 32 25
4 13 8 10 12 13 12 9 7 7 7 6 9 9 11 14 16 18 23 23 24 28 28 26 28 24 18 23 26 30 32 34

GFSFLT2_850_spd_078.txt.gz
Wind_Speed
4 2 7 20 16 7 7 9 9 13 14 15 10 12 16 17 15 13 9 24 24 24 26 27 28 27 26 24 22 24 27 27
3 4 2 7 13 10 9 14 13 10 17 10 8 12 14 19 23 19 1 5 20 21 22 24 25 26 25 25 25 24 24 26
7 2 2 7 11 10 9 5 14 9 7 8 6 7 11 15 17 20 23 10 1 12 19 20 21 23 24 24 24 23 25 25
9 6 1 2 5 9 10 12 6 6 7 9 10 8 10 15 18 18 20 20 14 7 2 14 18 19 20 19 20 20 21 24
10 7 4 3 2 2 8 8 13 10 8 10 12 11 12 15 16 19 22 23 20 11 13 11 8 11 14 16 17 16 17 20
4 7 6 8 3 1 7 10 8 4 18 13 10 11 13 14 15 18 19 20 20 22 20 13 6 7 8 5 10 12 16 15
9 8 6 4 4 3 1 5 5 17 16 12 11 11 13 14 15 16 18 20 20 21 22 20 14 7 3 7 4 6 11 16
3 3 3 4 4 3 3 3 6 10 14 11 11 11 12 13 14 16 17 17 18 18 18 19 19 16 11 2 8 11 11 15
4 1 2 8 11 9 6 5 6 9 13 11 10 9 9 11 14 15 15 16 17 16 17 17 18 18 17 12 3 4 5 9
4 6 6 7 4 1 7 7 3 9 10 8 8 7 9 9 10 12 13 14 15 15 16 16 15 17 17 16 14 6 4 6
4 9 4 5 5 6 12 10 3 9 8 7 5 6 9 5 8 9 12 12 12 14 15 15 16 17 17 17 16 16 12 8
4 5 6 10 7 3 2 8 8 7 6 3 2 8 13 3 8 9 10 11 13 14 14 14 16 17 17 16 16 16 17 16
7 5 2 5 6 6 7 6 9 8 5 1 3 7 4 8 9 10 11 12 13 13 13 14 16 17 17 17 16 17 18 17
5 6 8 10 7 6 8 9 8 5 2 2 3 7 10 12 12 12 12 13 13 15 15 14 16 17 17 17 17 18 19 20
4 2 5 12 2 7 4 3 3 2 1 1 4 7 9 10 11 12 14 14 14 15 17 17 16 16 20 20 21 20 21 20
2 8 7 9 7 6 4 3 5 5 3 1 4 6 8 8 9 10 11 13 14 15 15 17 17 18 19 22 22 21 21 22
8 8 4 12 12 10 8 7 6 5 3 2 4 5 7 9 9 9 11 13 13 12 12 15 17 19 18 18 20 22 23 22
4 3 10 2 15 14 12 11 8 5 4 3 3 4 5 7 8 10 12 14 15 14 14 15 17 17 19 20 19 17 19 22
7 5 7 4 10 15 12 10 7 6 5 3 3 3 2 4 6 9 11 12 13 14 15 17 18 18 19 19 20 25 26 22